Regional Weather Roundup
Issued by NWS

Home | Current Version | Previous Version | Text Only | Print | Product List | Glossary Off
Versions: 1 2 3 4 5 6 7 8 9 10 11 12 13 14 15 16 17 18 19 20 21 22 23 24 25 26 27 28 29 30 31 32 33 34 35 36 37 38 39 40 41 42 43 44 45 46 47 48 49 50

000
ASUS43 KOAX 301710
RWRNE

WEATHER ROUNDUP FOR NEBRASKA
NATIONAL WEATHER SERVICE OMAHA NE
1200 PM CDT TUE JUN 30 2015

NOTES: SATELLITE DATA IS BEING USED TO AUGMENT CLOUD COVER ABOVE
       12000 FEET.
       "FAIR" INDICATES FEW OR NO CLOUDS BELOW 12,000 FEET WITH NO
       SIGNIFICANT WEATHER AND/OR OBSTRUCTIONS TO VISIBILITY.

  * THESE STATIONS DO NOT REPORT WEATHER SUCH AS RAIN...SNOW OR FOG.

NEZ001>004-019>022-054>056-301800-
NEBRASKA PANHANDLE

CITY           SKY/WX    TMP DP  RH WIND       PRES   REMARKS
SCOTTSBLUFF    MOSUNNY   86  56  35 W5        30.02F
ALLIANCE       SUNNY     87  60  40 W5        30.00F
CHADRON        PTSUNNY   83  59  44 CALM      29.95F
KIMBALL          N/A    N/A N/A N/A MISG        N/A
SIDNEY         SUNNY     88  54  31 VRB5      30.06F
$$

NEZ057>060-069>072-079>082-301800-
SOUTHWEST NEBRASKA

CITY           SKY/WX    TMP DP  RH WIND       PRES   REMARKS
NORTH PLATTE   PTSUNNY   89  62  40 S7        29.96F
IMPERIAL       MOSUNNY   90  59  35 S8        30.00F
LEXINGTON      MOSUNNY   90  61  37 S10       29.95F HX  90
MCCOOK         MOSUNNY   91  60  35 SW9       29.97F HX  90
OGALLALA       SUNNY     85  64  48 CALM      29.99F
$$

NEZ005>010-023>029-035>040-094-301800-
NORTH CENTRAL NEBRASKA

CITY           SKY/WX    TMP DP  RH WIND       PRES   REMARKS
VALENTINE      PTSUNNY   83  62  49 SE8       29.93S
AINSWORTH      PTSUNNY   81  64  56 E10       29.95S
BROKEN BOW     PTSUNNY   87  63  44 S10       29.94F
O`NEILL        CLOUDY    78  63  59 E10       29.95F
ORD            PTSUNNY   81  63  54 E8        29.93F
THEDFORD       PTSUNNY   90  61  37 SW9       29.96S HX  90
$$

NEZ041-046>049-061>064-073>077-083>087-301800-
SOUTH CENTRAL NEBRASKA

CITY           SKY/WX    TMP DP  RH WIND       PRES   REMARKS
GRAND ISLAND   MOSUNNY   88  63  43 SE5       29.94F
AURORA         MOSUNNY   79  66  64 E8        29.95F
HASTINGS       SUNNY     89  61  38 S13       29.94F
HEBRON         MOSUNNY   89  56  31 SW8       29.94S
HOLDREGE       PTSUNNY   85  60  43 SW9       29.96F
KEARNEY *      PTSUNNY   86  64  48 S13       29.94F
YORK           PTSUNNY   81  66  61 SE6       29.95F
$$

NEZ011>018-030>034-042>045-301800-
NORTHEAST NEBRASKA

CITY           SKY/WX    TMP DP  RH WIND       PRES   REMARKS
NORFOLK        LGT RAIN  74  62  66 NE14      29.95F
ALBION         PTSUNNY   80  61  52 E8        29.96R
BLAIR          LGT RAIN  73  64  74 NE6       29.97R
COLUMBUS *     CLOUDY   N/A N/A N/A MISG        N/A
FREMONT        CLOUDY    77  64  64 N5        29.97R
TEKAMAH        LGT RAIN  74  67  78 N6        29.97R
WAYNE          LGT RAIN  69  66  91 NE8       29.97F
$$

NEZ050>053-065>068-078-088>093-301800-
SOUTHEAST NEBRASKA

CITY           SKY/WX    TMP DP  RH WIND       PRES   REMARKS
LINCOLN        CLOUDY    82  65  56 S5        29.94F
OMAHA EPPLEY   CLOUDY    76  66  71 N9        29.94R HAZE
BEATRICE       PTSUNNY   82  66  59 S3        29.95F
FALLS CITY     PTSUNNY   80  69  69 NW3       29.93F
NEBRASKA CITY  CLOUDY    78  61  57 CALM      29.95S
PLATTSMOUTH    CLOUDY    76  62  60 CALM      29.94S
$$

NEZ044-045-051>053-067-301800-
OMAHA AREA

CITY           SKY/WX    TMP DP  RH WIND       PRES   REMARKS
OMAHA EPPLEY   CLOUDY    76  66  71 N9        29.94R HAZE
BLAIR          LGT RAIN  73  64  74 NE6       29.97R
FREMONT        CLOUDY    77  64  64 N5        29.97R
MILLARD        CLOUDY    77  64  64 CALM      29.93F
OFFUTT AFB     CLOUDY    76  66  71 S3        29.92S
PLATTSMOUTH    CLOUDY    76  62  60 CALM      29.94S
WAHOO          PTSUNNY   78  66  67 CALM      29.95R
$$


USA.gov is the U.S. government's official web portal to all federal, state and local government web resources and services.